Location: Isle of Man Observatory
(54.1776°N, 4.6264°W)
Time: 06:58:18
(UTC+02:00)

Envisat - Pass Details

Date: 21 May 2026
Orbit: 761 x 763 km, 98.4° (Epoch: 11 June)

Event Time Altitude Azimuth Distance (km) Brightness Sun altitude
Rises 03:42:20 0° 25° (NNE) 3,237 8.3 -13.3°
Reaches altitude 10° 03:45:21 10° 43° (NE) 2,306 6.6 -13.2°
Maximum altitude 03:48:52 19° 88° (E) 1,777 5.2 -13.0°
Drops below altitude 10° 03:52:23 10° 132° (SE) 2,293 5.3 -12.8°
Enters shadow 03:55:11 - 150° (SSE) 3,155 5.8 -12.6°
